Location: Unspecified
(51.0000°N, 12.0000°E)
Time: 03:43:07
(UTC+01:00)

ISS - Visible Passes

Search period start: 24 February 2019 00:00
Search period end: 06 March 2019 00:00
Orbit: 403 x 411 km, 51.6° (Epoch: 24 February)

Date Brightness Start Highest point End Pass type
(mag) Time Alt. Az. Time Alt. Az. Time Alt. Az.
24 Feb -0.7 05:44:53 10° SSE 05:45:51 11° SE 05:46:47 10° ESE visible
25 Feb -2.1 06:27:28 10° SSW 06:30:24 31° SSE 06:33:21 10° E visible
26 Feb -1.5 05:36:36 10° SSW 05:39:07 21° SE 05:41:39 10° E visible
27 Feb -1.2 04:47:00 12° SSE 04:47:53 14° SE 04:49:36 10° ESE visible
27 Feb -3.1 06:20:40 10° SW 06:23:52 53° SSE 06:27:04 10° E visible
28 Feb -2.6 05:30:30 18° SSW 05:32:28 37° SSE 05:35:32 10° E visible
01 Mar -2.0 04:41:11 25° SE 04:41:11 25° SE 04:43:52 10° E visible
01 Mar -3.8 06:14:05 10° WSW 06:17:22 80° SSE 06:20:39 10° E visible
02 Mar -0.5 03:51:47 11° ESE 03:51:47 11° ESE 03:51:59 10° E visible
02 Mar -3.6 05:24:29 30° SW 05:25:53 61° SSE 05:29:07 10° E visible
03 Mar -2.6 04:35:01 38° ESE 04:35:01 38° ESE 04:37:34 10° E visible
03 Mar -3.8 06:07:43 11° W 06:10:52 81° N 06:14:09 10° E visible
04 Mar -0.6 03:45:29 13° E 03:45:29 13° E 03:45:56 10° E visible
04 Mar -3.9 05:18:11 38° WSW 05:19:19 88° S 05:22:37 10° E visible
05 Mar -2.8 04:28:36 46° E 04:28:36 46° E 04:31:04 10° ENE visible
05 Mar -3.8 06:01:18 12° W 06:04:22 78° N 06:07:38 10° E visible
